This demonstration page uses our WeatherBlox Daily Observations layout. Learn more.

Left ArrowRight Arrow

Hourly Observations for July 10, 2022

Temp ( °F °C ) Dew Point ( °F °C ) Humidity (%) Winds ( mph kmh ) Pressure ( in mb ) Visibility ( mi km ) Precip ( " mm )
12:53 am 00:53 Clear 56 13.3 43 6.1 62 62 Calm 30.05 1018 10 16 0.00 0.00
1:53 am 01:53 Clear 54 12.2 41 5 62 62 Calm 30.05 1018 10 16 0.00 0.00
2:53 am 02:53 Clear 49 9.4 41 5 74 74 WSW 3 6 30.06 1018 10 16 0.00 0.00
3:53 am 03:53 Clear 48 8.9 41 5 77 77 Calm 30.07 1018 10 16 0.00 0.00
4:53 am 04:53 Clear 49 9.4 41 5 74 74 Calm 30.10 1019 10 16 0.00 0.00
5:53 am 05:53 Sunny 47 8.3 41 5 80 80 WSW 3 6 30.11 1020 10 16 0.00 0.00
6:53 am 06:53 Sunny 53 11.7 44 6.7 72 72 Calm 30.13 1020 10 16 0.00 0.00
7:53 am 07:53 Sunny 62 16.7 44 6.7 52 52 Calm 30.12 1020 10 16 0.00 0.00
8:53 am 08:53 Sunny 72 22.2 46 7.8 40 40 NE 6 9 30.11 1020 10 16 0.00 0.00
9:53 am 09:53 Sunny 81 27.2 42 5.6 25 25 E 6 9 30.09 1019 10 16 0.00 0.00
10:53 am 10:53 Sunny 86 30 42 5.6 21 21 VRB 5 7 30.08 1019 10 16 0.00 0.00
11:53 am 11:53 Sunny 89 31.7 38 3.3 16 16 WSW 9 15 30.08 1019 10 16 0.00 0.00
12:53 pm 12:53 Sunny 90 32.2 36 2.2 15 15 W 7 11 30.06 1018 10 16 0.00 0.00
1:53 pm 13:53 Sunny 95 35 36 2.2 13 13 WNW 12 19 30.01 1016 10 16 0.00 0.00
2:53 pm 14:53 Sunny 91 32.8 34 1.1 13 13 W 9 15 30.02 1017 10 16 0.00 0.00
3:18 pm 15:18 Sunny 87 30.6 43 6.1 21 21 S 16 26 29.64 1004 10 16 0.00 0.00
3:53 pm 15:53 Sunny 85 29.4 43 6.1 23 23 S 14 22 30.05 1018 10 16 0.00 0.00
4:53 pm 16:53 Mostly Sunny 84 28.9 41 5 22 22 S 18 30 30.05 1018 10 16 0.00 0.00
5:53 pm 17:53 Sunny 86 30 41 5 20 20 S 17 28 30.02 1017 10 16 0.00 0.00
6:53 pm 18:53 Sunny 84 28.9 45 7.2 25 25 SSE 15 24 30.01 1016 10 16 0.00 0.00
7:53 pm 19:53 Mostly Sunny 80 26.7 40 4.4 24 24 SW 8 13 30.01 1016 10 16 0.00 0.00
8:53 pm 20:53 Mostly Clear 77 25 44 6.7 31 31 WSW 12 19 30.03 1017 10 16 0.00 0.00
9:53 pm 21:53 Mostly Clear 74 23.3 44 6.7 34 34 SW 9 15 30.03 1017 10 16 0.00 0.00
10:53 pm 22:53 Clear 70 21.1 45 7.2 41 41 ENE 5 7 30.01 1016 10 16 0.00 0.00
11:53 pm 23:53 Clear 68 20 45 7.2 44 44 NE 3 6 30.01 1016 10 16 0.00 0.00

Powered by AerisWeather